When you browse on this site, cookies collect data to enhance your experience and personalize the content and advertising you see.
Visit our Privacy Policy to learn more. By continuing to use the site, you agree to this use of cookies and data.

Hourly Weather Malaya Olsa

Today, 9 July, Thursday

Time Temperature Precipitation Wind Pressure Humidity
00:00 +12°C° 0 mm 2 mps 747 mmHg 92%
01:00 +10°C° 0 mm 2 mps 747 mmHg 94%
02:00 +10°C° 0 mm 2 mps 747 mmHg 97%
03:00 +10°C° 0 mm 2 mps 747 mmHg 97%
04:00 +10°C° 0 mm 2 mps 747 mmHg 96%
05:00 +10°C° 0 mm 2 mps 747 mmHg 96%
06:00 +12°C° 0 mm 2 mps 748 mmHg 89%
07:00 +14°C° 0 mm 2 mps 748 mmHg 81%
08:00 +16°C° 0 mm 2 mps 749 mmHg 73%
09:00 +17°C° 0.1 mm 2 mps 749 mmHg 69%
10:00 +18°C° 0.1 mm 3 mps 749 mmHg 65%
11:00 +19°C° 0.1 mm 3 mps 749 mmHg 61%
12:00 +19°C° 0.1 mm 3 mps 749 mmHg 59%
13:00 +20°C° 0.1 mm 3 mps 750 mmHg 57%
14:00 +20°C° 0.1 mm 4 mps 750 mmHg 54%
15:00 +20°C° 0 mm 4 mps 750 mmHg 56%
16:00 +20°C° 0 mm 4 mps 750 mmHg 58%
17:00 +20°C° 0 mm 4 mps 750 mmHg 60%
18:00 +18°C° 0 mm 3 mps 750 mmHg 67%
19:00 +17°C° 0 mm 2 mps 750 mmHg 73%
20:00 +15°C° 0 mm 1 mps 750 mmHg 80%
21:00 +14°C° 0 mm 1 mps 750 mmHg 82%
22:00 +13°C° 0 mm 1 mps 750 mmHg 85%
23:00 +13°C° 0 mm 1 mps 750 mmHg 87%

Tomorrow, 10 July, Friday

Time Temperature Precipitation Wind Pressure Humidity
00:00 +12°C° 0 mm 2 mps 750 mmHg 88%
01:00 +12°C° 0 mm 2 mps 750 mmHg 89%
02:00 +12°C° 0 mm 2 mps 751 mmHg 90%
03:00 +12°C° 0 mm 2 mps 750 mmHg 90%
04:00 +12°C° 0 mm 2 mps 750 mmHg 90%
05:00 +11°C° 0 mm 3 mps 750 mmHg 90%
06:00 +13°C° 0 mm 4 mps 750 mmHg 85%
07:00 +15°C° 0 mm 4 mps 750 mmHg 81%
08:00 +16°C° 0 mm 5 mps 749 mmHg 76%
09:00 +19°C° 0 mm 5 mps 749 mmHg 73%
10:00 +20°C° 0 mm 6 mps 749 mmHg 71%
11:00 +21°C° 0 mm 6 mps 749 mmHg 68%
12:00 +22°C° 0.3 mm 6 mps 749 mmHg 69%
13:00 +23°C° 0.3 mm 6 mps 748 mmHg 70%
14:00 +24°C° 0.3 mm 6 mps 748 mmHg 72%
15:00 +23°C° 0.6 mm 5 mps 748 mmHg 75%
16:00 +23°C° 0.6 mm 5 mps 748 mmHg 79%
17:00 +23°C° 0.6 mm 4 mps 748 mmHg 83%
18:00 +22°C° 0.8 mm 4 mps 748 mmHg 86%
19:00 +21°C° 0.8 mm 4 mps 748 mmHg 89%
20:00 +20°C° 0.8 mm 4 mps 748 mmHg 92%
21:00 +20°C° 0.2 mm 3 mps 748 mmHg 93%
22:00 +19°C° 0.2 mm 3 mps 748 mmHg 94%
23:00 +19°C° 0.2 mm 3 mps 748 mmHg 96%

Day after tomorrow, 11 July, Saturday

Time Temperature Precipitation Wind Pressure Humidity
00:00 +19°C° 0 mm 3 mps 748 mmHg 96%
01:00 +19°C° 0 mm 3 mps 748 mmHg 96%
02:00 +19°C° 0 mm 3 mps 748 mmHg 97%
03:00 +19°C° 0 mm 4 mps 748 mmHg 96%
04:00 +19°C° 0 mm 4 mps 748 mmHg 96%
05:00 +19°C° 0 mm 4 mps 748 mmHg 96%
06:00 +20°C° 0 mm 4 mps 748 mmHg 93%
07:00 +21°C° 0 mm 4 mps 749 mmHg 90%
08:00 +23°C° 0 mm 5 mps 749 mmHg 86%
09:00 +25°C° 0 mm 5 mps 749 mmHg 81%
10:00 +26°C° 0 mm 4 mps 749 mmHg 76%
11:00 +27°C° 0 mm 4 mps 749 mmHg 72%
12:00 +28°C° 1.4 mm 4 mps 749 mmHg 72%
13:00 +28°C° 1.4 mm 4 mps 749 mmHg 73%
14:00 +28°C° 1.4 mm 3 mps 749 mmHg 73%
15:00 +28°C° 1.9 mm 3 mps 749 mmHg 75%
16:00 +27°C° 1.9 mm 2 mps 749 mmHg 77%
17:00 +27°C° 1.9 mm 2 mps 749 mmHg 80%
18:00 +25°C° 0.9 mm 2 mps 749 mmHg 83%
19:00 +24°C° 0.9 mm 2 mps 749 mmHg 87%
20:00 +21°C° 0.9 mm 2 mps 749 mmHg 91%
21:00 +20°C° 1 mm 3 mps 749 mmHg 92%
22:00 +19°C° 1 mm 3 mps 749 mmHg 93%
23:00 +19°C° 1 mm 3 mps 750 mmHg 95%

12 July, Sunday

Time Temperature Precipitation Wind Pressure Humidity
00:00 +18°C° 0.7 mm 3 mps 750 mmHg 95%
01:00 +17°C° 0.7 mm 4 mps 750 mmHg 95%
02:00 +15°C° 0.7 mm 4 mps 750 mmHg 95%
03:00 +15°C° 0 mm 4 mps 750 mmHg 95%
04:00 +14°C° 0 mm 4 mps 750 mmHg 95%
05:00 +14°C° 0 mm 4 mps 749 mmHg 94%
06:00 +14°C° 0 mm 4 mps 750 mmHg 93%
07:00 +14°C° 0 mm 4 mps 750 mmHg 92%
08:00 +14°C° 0 mm 4 mps 750 mmHg 91%
09:00 +15°C° 0 mm 4 mps 750 mmHg 88%
10:00 +15°C° 0 mm 4 mps 750 mmHg 85%
11:00 +17°C° 0 mm 4 mps 750 mmHg 83%
12:00 +18°C° 0 mm 4 mps 750 mmHg 81%
13:00 +18°C° 0 mm 4 mps 750 mmHg 80%
14:00 +19°C° 0 mm 4 mps 750 mmHg 78%
15:00 +19°C° 0 mm 4 mps 750 mmHg 79%
16:00 +19°C° 0 mm 4 mps 750 mmHg 79%
17:00 +19°C° 0 mm 4 mps 749 mmHg 79%
18:00 +18°C° 0 mm 4 mps 749 mmHg 81%
19:00 +17°C° 0 mm 4 mps 749 mmHg 82%
20:00 +17°C° 0 mm 4 mps 749 mmHg 84%
21:00 +15°C° 0 mm 4 mps 749 mmHg 84%
22:00 +15°C° 0 mm 4 mps 749 mmHg 84%
23:00 +15°C° 0 mm 4 mps 748 mmHg 84%

13 July, Monday

Time Temperature Precipitation Wind Pressure Humidity
00:00 +15°C° 0.1 mm 4 mps 748 mmHg 87%
01:00 +14°C° 0.1 mm 4 mps 747 mmHg 90%
02:00 +14°C° 0.1 mm 4 mps 747 mmHg 92%
03:00 +14°C° 0.6 mm 3 mps 747 mmHg 94%
04:00 +14°C° 0.6 mm 3 mps 746 mmHg 95%
05:00 +14°C° 0.6 mm 3 mps 746 mmHg 97%
06:00 +14°C° 0 mm 3 mps 746 mmHg 96%
07:00 +14°C° 0 mm 3 mps 746 mmHg 96%
08:00 +16°C° 0 mm 3 mps 745 mmHg 95%
09:00 +17°C° 0 mm 3 mps 745 mmHg 94%
10:00 +17°C° 0 mm 3 mps 745 mmHg 92%
11:00 +18°C° 0 mm 3 mps 745 mmHg 91%
12:00 +19°C° 0.5 mm 3 mps 745 mmHg 90%
13:00 +19°C° 0.5 mm 3 mps 745 mmHg 89%
14:00 +20°C° 0.5 mm 3 mps 744 mmHg 88%
15:00 +19°C° 1.1 mm 3 mps 744 mmHg 89%
16:00 +19°C° 1.1 mm 4 mps 744 mmHg 91%
17:00 +19°C° 1.1 mm 4 mps 744 mmHg 92%
18:00 +18°C° 1.1 mm 4 mps 743 mmHg 93%
19:00 +17°C° 1.1 mm 4 mps 743 mmHg 95%
20:00 +17°C° 1.1 mm 4 mps 743 mmHg 96%
21:00 +17°C° 0.5 mm 3 mps 743 mmHg 96%
22:00 +17°C° 0.5 mm 3 mps 743 mmHg 97%
23:00 +16°C° 0.5 mm 3 mps 743 mmHg 97%

14 July, Tuesday

Time Temperature Precipitation Wind Pressure Humidity
00:00 +16°C° 0.2 mm 3 mps 743 mmHg 97%
01:00 +16°C° 0.2 mm 3 mps 742 mmHg 97%
02:00 +16°C° 0.2 mm 3 mps 742 mmHg 97%
03:00 +16°C° 0.4 mm 3 mps 742 mmHg 97%
04:00 +16°C° 0.4 mm 3 mps 742 mmHg 97%
05:00 +16°C° 0.4 mm 3 mps 741 mmHg 97%
06:00 +17°C° 0.3 mm 3 mps 741 mmHg 97%
07:00 +17°C° 0.3 mm 3 mps 741 mmHg 96%
08:00 +17°C° 0.3 mm 3 mps 741 mmHg 96%
09:00 +18°C° 0.2 mm 3 mps 741 mmHg 95%
10:00 +18°C° 0.2 mm 3 mps 741 mmHg 95%
11:00 +18°C° 0.2 mm 3 mps 741 mmHg 95%
12:00 +19°C° 0.7 mm 3 mps 741 mmHg 94%
13:00 +19°C° 0.7 mm 4 mps 740 mmHg 92%
14:00 +20°C° 0.7 mm 4 mps 740 mmHg 91%
15:00 +20°C° 1.1 mm 4 mps 740 mmHg 91%
16:00 +20°C° 1.1 mm 4 mps 740 mmHg 92%
17:00 +19°C° 1.1 mm 4 mps 739 mmHg 92%
18:00 +19°C° 1.9 mm 4 mps 739 mmHg 93%
19:00 +18°C° 1.9 mm 4 mps 739 mmHg 95%
20:00 +17°C° 1.9 mm 4 mps 739 mmHg 96%
21:00 +17°C° 1.3 mm 4 mps 739 mmHg 96%
22:00 +17°C° 1.3 mm 4 mps 738 mmHg 97%
23:00 +15°C° 1.3 mm 4 mps 738 mmHg 97%
Show more